934  
ASUS41 KGYX 172310  
RWRGYX  
WEATHER ROUNDUP FOR MAINE AND NEW HAMPSHIRE  
NATIONAL WEATHER SERVICE GRAY ME  
700 PM EDT FRI AUG 17 2018  
 
MEZ002-005-006-010-012-015-018-020-021-024-026-027-029-180000-  
MAINE  
 
CITY SKY/WX TMP DP RH WIND PRES REMARKS
 
PORTLAND CLOUDY 70 69 97 E5 29.97F  
SANFORD MOCLDY 70 68 94 CALM 29.97F  
BAR HARBOR FAIR 67 61 81 S6 30.01F  
WISCASSET CLOUDY 70 66 87 SE3 29.99F  
ROCKLAND FAIR 65 63 93 S3 30.00F  
FRYEBURG MOCLDY 72 63 73 S5 29.97F  
LEWISTONAUBURN MOCLDY 69 65 86 S8 29.98F  
AUGUSTA FAIR 70 57 63 S9 29.98F  
WATERVILLE FAIR 71 59 65 VRB3 29.94F  
BANGOR CLOUDY 69 61 75 S10 29.98F  
GREENVILLE N/A 67 61 81 VRB6 29.96F  
MILLINOCKET FAIR 72 58 61 VRB6 29.97S  
HOULTON FAIR 67 63 87 CALM 29.94F  
PRESQUE ISLE FAIR 70 60 70 S3 29.95S  
FRENCHVILLE FAIR 71 56 58 N5 29.95S  
CARIBOU FAIR 72 58 61 S6 29.93F  

 
 
NHZ002-005-008-009-011-012-014-180000-  
NEW HAMPSHIRE  
 
CITY SKY/WX TMP DP RH WIND PRES REMARKS
 
PORTSMOUTH PTCLDY 71 68 92 E6 29.94F  
ROCHESTER MOCLDY 71 70 96 CALM 29.96F  
MANCHESTER NOT AVBL  
CONCORD MOCLDY 74 70 87 E6 29.94F  
LACONIA FAIR 74 67 78 CALM 29.96F  
PLYMOUTH CLOUDY 73 66 78 CALM 29.94F  
BERLIN CLOUDY 73 65 75 S7 29.94F  
WHITEFIELD CLOUDY 75 66 73 W5 29.93F  
JAFFREY NOT AVBL  
LEBANON CLOUDY 77 70 79 S3 29.90F  
MT WASHINGTON FOG 55 55 100 SW35G49 N/A VSB 0  

 
 
VTZ005-007-008-180000-  
VERMONT  
 
CITY SKY/WX TMP DP RH WIND PRES REMARKS
 
ST JOHNSBURY N/A 72 70 93 MISG 29.90F  
MONTPELIER LGT RAIN 73 71 93 CALM 29.95F  
BURLINGTON CLOUDY 77 71 82 S6 29.85F  

 
 
MAZ007-012-024-CTZ003-RIZ002-NYZ038-NYZ072-180000-  
SOUTHERN NEW ENGLAND AND NY  
 
CITY SKY/WX TMP DP RH WIND PRES REMARKS
 
BOSTON TSTM 75 71 87 E6 29.94F  
WORCESTER FAIR 78 71 79 S13 29.98F  
NANTUCKET FOG 73 73 100 S5 30.00F VSB 1/4  
PROVIDENCE MOCLDY 81 71 71 S15 29.97F  
HARTFORD MOCLDY 79 75 87 S9 29.92F  
ALBANY TSTM 79 72 79 S10G23 29.90R  
NEW YORK CITY MOCLDY 85 74 69 S14G21 29.91F HX 92  

 
 
ANZ081-ANZ082-ANZ150-NHZ014-MEZ023>029-180000-  
COASTAL MARINE OBSERVATIONS  
 
STATION/POSITION TIME TEMP WIND PRES WAVE
 
AIR SEA DIR/SP/G HT/PER  
(UTC) (F) (DEG/KT/KT) (MB) (FT/S)  
MOUNT DESERT ROC 2300 64 140/ 12/ 12 1016.3F  
MATINICUS ROCK 2200 64 140/ 14/ 14 1016.0F  
ISLE OF SHOALS 2200 69 60/ 7/ 9 1014.3F  
JEFFREYS LEDGE 2236 70 N/A 2/ 8  
CASHES LEDGE BUO 2250 70 70 1015.0F 2/ 7  

 
   
............KEY...........
 
 
WCI - WIND CHILL  
TC - TEMPERATURE IN CELSIUS  
VSB - VISIBILITY
IN MILES  
HX - HEAT INDEX  
FAIR- INDICATES FEW OR NO CLOUDS BELOW 12,000 FT, WITH NO  
SIGNIFICANT WEATHER AND/OR S TO VISIBILITY.  
 
 
 
CLICK HERE TO GO TO PREVIOUS BULLETINS.

The Nexlab ME Page
The Nexlab NH Page Main Text Page